Regional Weather Roundup
Issued by NWS Jackson, KY

Home | Current Version | Previous Version | Text Only | Print | Product List | Glossary Off
Versions: 1 2 3 4 5 6 7 8 9 10 11 12 13 14 15 16 17 18 19 20 21 22 23 24 25 26 27 28 29 30 31 32 33 34 35 36 37 38 39 40 41 42 43 44 45 46 47 48 49 50

000
ASUS43 KJKL 301010
RWRJKL

EAST KENTUCKY HOURLY WEATHER ROUNDUP
NATIONAL WEATHER SERVICE JACKSON KY
600 AM EDT SAT JUL 30 2016

NOTE: "FAIR" INDICATES FEW OR NO CLOUDS BELOW 12,000 FEET WITH
NO SIGNIFICANT WEATHER AND/OR OBSTRUCTIONS TO VISIBILITY.

* THESE REPORTS ARE NOT UNDER NWS QUALITY CONTROL AND MAY NOT
  REPORT WEATHER SUCH AS PRECIPITATION AND FOG.

KYZ079-080-083-085-087-088-110-112-115-119-120-301100
...EASTERN KENTUCKY...

CITY           SKY/WX    TMP DP  RH WIND       PRES   REMARKS
JACKSON        MOCLDY    69  67  93 VRB3      29.98S
LONDON         CLOUDY    71  67  87 CALM      29.99R
SOMERSET*      CLOUDY    70  70 100 CALM      29.98S
MONTICELLO*    CLOUDY   N/A N/A N/A NE6       29.99S
WILLIAMSBURG*  CLOUDY    68  68 100 CALM      30.00R
MIDDLESBORO*   CLOUDY    70  70 100 CALM      30.01R
HARLAN APT*    CLOUDY    68  66  94 CALM      30.02R
PIKE CO APT*   MOCLDY    67  67 100 SE3       29.99S
MOREHEAD APT*  CLOUDY    72  70  94 CALM      29.96S
ASHLAND*       CLOUDY    73  70  88 CALM      29.91R
$$

KYZ035-036-041-042-044-050-067-078-099-301100
...CENTRAL KENTUCKY...

CITY           SKY/WX    TMP DP  RH WIND       PRES   REMARKS
MT STERLING*   CLOUDY    70  70 100 SW6       29.96S
FLEMING/MASON* CLOUDY    70  70  98 SW5       29.93S
DANVILLE*      MOCLDY    70  70 100 CALM      29.97S
LEXINGTON      CLOUDY    71  69  93 S5        29.95S
FRANKFORT      CLOUDY    71  68  90 S6        29.93R
LOUISVILLE     CLOUDY    73  70  90 W6        29.93R
GLASGOW*       CLOUDY    72  72 100 W3        29.97R
BOWLING GREEN  PTCLDY    73  70  90 SW5       29.96R
$$

KYZ091>093-OHZ055-061-077-WVZ005-015-034-035-042-301100
...SOUTHERN OHIO/WEST VIRGINIA...

CITY           SKY/WX    TMP DP  RH WIND       PRES   REMARKS
COVINGTON      CLOUDY    71  70  96 W5        29.93R FOG
COLUMBUS       CLOUDY    71  69  93 CALM      29.92R
DAYTON         FOG       69  69 100 W5        29.95R VSB 3/4
WILMINGTON     CLOUDY    69  68  96 NW3       29.93R
HUNTINGTON     MOCLDY    71  69  93 S5        29.93S
CHARLESTON       N/A     69  67  93 CALM      29.95S
PINEVILLE*     CLOUDY    68  65  90 MISG      30.06S FOG
BECKLEY          N/A     64  63  96 S5        30.05R
BLUEFIELD        N/A     63  62  97 SW3       30.07S
LOGAN CO APT*  CLOUDY    68  68 100 CALM      29.99R
$$

VAZ002-007-008-TNZ017-027-036-066-071-301100
...SOUTHWEST VIRGINIA/EAST TENNESSEE...

CITY           SKY/WX    TMP DP  RH WIND       PRES   REMARKS
WISE*            N/A     64  63  94 SW6       30.08S
JONESVILLE*    CLOUDY    70  68  94 CALM      30.04S
ABINGDON*      FOG       68  68 100 CALM      30.06R VSB 3/4
BRISTOL        CLOUDY    68  67  96 CALM      30.03R FOG
SEVIERVILLE*   PTSUNNY   68  66  94 CALM      30.00R
KNOXVILLE      MOCLDY    73  70  90 CALM      30.00R
OAK RIDGE      MOCLDY    74  70  87 CALM      30.01R
CROSSVILLE     CLOUDY    70  69  97 CALM      30.04R
NASHVILLE      CLOUDY    74  71  91 CALM      29.99R
$$

...KEY TO REMARKS...
VSB - VISIBILITY IN MILES
WCI - WIND CHILL INDEX
HX  - HEAT INDEX

$$



USA.gov is the U.S. government's official web portal to all federal, state and local government web resources and services.